Temp
36 37 36 36 38 37 38 37 36 44 46 47 47 47 47 47 47 48 48 48 48 48 49 49 49 49 49
33 34 35 36 34 34 38 41 35 42 44 46 45 45 45 46 46 47 46 46 46 47 47 48 48 49 49
31 33 33 33 33 33 34 32 38 41 42 43 43 43 44 45 45 45 45 46 46 46 46 46 46 46 48
31 31 31 34 31 30 30 30 31 37 39 40 40 41 42 43 42 42 43 45 46 46 45 45 45 46 46
30 30 30 30 28 29 28 29 30 29 30 32 33 32 33 38 38 41 43 44 45 45 45 46 46 46 46
28 28 29 28 28 27 26 25 24 29 28 28 30 28 31 32 40 42 43 43 44 44 44 44 44 44 44
28 27 26 28 27 26 25 28 27 29 28 25 27 27 31 35 38 41 42 42 42 43 43 43 43 43 43
31 30 29 30 33 33 30 29 31 30 28 23 26 27 31 32 38 40 40 40 40 41 41 42 41 42 42
39 39 39 39 37 30 26 24 24 28 29 26 27 27 30 27 29 38 39 39 39 40 40 40 40 40 36
30 31 31 31 35 29 26 24 25 23 25 26 27 26 23 26 31 29 31 36 38 38 38 38 38 36 33
28 27 27 28 27 32 32 29 25 25 30 29 24 26 26 26 28 30 29 31 30 31 35 36 37 36 32
26 25 27 26 28 30 32 31 31 29 30 29 21 25 24 23 22 28 29 30 28 28 29 32 34 35 36
27 27 28 29 30 30 29 28 27 28 31 28 26 27 21 22 22 24 26 28 28 28 27 27 27 28 27
27 28 30 29 28 29 25 25 24 23 29 28 27 26 23 24 23 23 24 24 27 26 26 27 28 30 29
27 26 27 28 27 28 25 24 18 21 22 26 28 26 25 23 20 23 24 24 25 25 25 24 27 29 29
26 25 25 25 25 26 23 21 20 21 21 24 24 23 23 23 30 22 21 23 24 26 25 23 24 28 29
24 24 24 24 24 21 23 21 20 17 19 25 23 21 18 16 22 31 24 23 24 24 24 23 22 26 29
MSLP
1028.43 1028.36 1028.21 1028.08 1027.78 1027.64 1027.67 1027.28 1027.11 1026.79 1026.37 1026.23 1025.83 1025.67 1025.19 1024.53 1023.82 1023.26 1022.91 1022.42 1022.03 1021.25 1020.71 1020.31 1019.69 1019.06 1018.33
1028.82 1028.64 1028.30 1028.01 1027.78 1027.71 1027.47 1027.24 1027.24 1026.71 1026.48 1026.05 1025.95 1025.47 1024.80 1024.35 1023.87 1023.15 1022.69 1022.20 1021.50 1021.14 1020.68 1020.04 1019.30 1018.55 1017.79
1029.03 1028.73 1028.28 1028.02 1027.77 1027.70 1027.62 1027.46 1027.19 1026.73 1026.58 1026.25 1025.89 1025.45 1024.81 1024.02 1023.42 1022.95 1022.35 1021.84 1021.29 1021.03 1020.44 1019.86 1019.07 1018.32 1017.27
1029.06 1028.96 1028.68 1028.15 1028.06 1028.34 1027.96 1027.81 1027.44 1026.90 1026.77 1026.24 1025.69 1025.18 1024.68 1023.94 1023.35 1022.91 1022.40 1021.83 1021.05 1020.47 1019.97 1019.26 1018.52 1017.63 1016.74
1029.01 1029.00 1028.77 1028.75 1028.73 1028.95 1028.90 1028.29 1027.52 1027.45 1027.18 1026.37 1025.62 1024.95 1024.48 1023.82 1023.19 1022.73 1022.31 1021.61 1020.80 1020.04 1019.29 1018.48 1017.69 1016.87 1016.22
1029.09 1029.01 1029.06 1029.21 1029.16 1029.27 1029.08 1028.84 1028.33 1027.68 1027.19 1026.22 1025.78 1025.27 1024.30 1023.54 1023.13 1022.52 1022.00 1021.64 1020.56 1019.69 1018.89 1018.14 1017.36 1016.71 1015.96
1028.93 1028.90 1029.02 1029.19 1029.30 1029.15 1029.09 1029.05 1028.68 1028.04 1027.54 1026.31 1025.70 1025.20 1024.37 1023.48 1022.93 1022.45 1021.99 1021.22 1020.40 1019.40 1018.68 1017.82 1017.08 1016.48 1015.78
1028.56 1028.81 1028.81 1028.97 1028.78 1028.54 1028.67 1028.47 1027.87 1027.48 1027.13 1026.39 1025.75 1025.10 1024.17 1023.11 1022.77 1022.28 1021.62 1020.94 1020.13 1019.30 1018.48 1017.61 1016.89 1016.26 1015.60
1028.35 1028.46 1028.13 1028.29 1028.64 1028.91 1028.93 1028.37 1027.63 1027.10 1026.78 1026.48 1025.70 1024.46 1023.48 1022.88 1022.56 1021.98 1021.34 1020.71 1019.96 1019.10 1018.23 1017.36 1016.86 1016.08 1015.49
1028.82 1028.97 1029.04 1028.98 1028.96 1029.07 1029.03 1028.61 1027.99 1027.10 1026.70 1026.53 1025.50 1024.96 1023.36 1022.56 1022.23 1021.72 1021.24 1020.47 1019.61 1018.94 1018.17 1017.60 1016.75 1015.91 1015.35
1029.16 1029.43 1029.42 1029.46 1029.08 1028.84 1028.54 1028.46 1028.32 1027.96 1027.14 1026.53 1025.79 1025.24 1024.77 1023.32 1022.11 1021.48 1021.16 1020.18 1019.59 1019.00 1018.27 1017.51 1016.65 1015.95 1015.20
1029.55 1029.62 1029.38 1029.30 1029.30 1028.81 1028.45 1028.24 1027.98 1027.53 1026.79 1026.45 1026.11 1025.48 1024.70 1023.83 1022.70 1021.57 1020.88 1020.04 1019.62 1019.11 1018.37 1017.48 1016.65 1015.90 1015.18
1029.52 1029.45 1029.47 1029.48 1029.14 1028.71 1028.42 1028.02 1027.49 1027.02 1026.50 1026.12 1025.74 1025.11 1024.64 1023.95 1023.02 1021.89 1021.07 1019.94 1019.61 1019.23 1018.42 1017.62 1016.77 1015.96 1015.12
1029.69 1029.69 1029.38 1029.12 1028.90 1028.48 1028.17 1027.79 1027.31 1026.62 1026.09 1025.80 1025.26 1024.90 1024.25 1023.31 1022.82 1022.02 1021.49 1020.80 1019.96 1019.33 1018.58 1017.54 1016.56 1015.85 1015.20
1029.85 1029.62 1029.32 1029.13 1028.80 1028.43 1028.12 1027.72 1027.69 1027.00 1026.09 1025.30 1024.69 1024.36 1023.83 1023.20 1022.53 1021.90 1021.46 1020.87 1020.19 1019.40 1018.57 1017.66 1016.56 1015.79 1015.15
1029.85 1029.69 1029.41 1029.09 1028.83 1028.51 1028.22 1027.91 1027.64 1027.02 1026.38 1025.48 1024.67 1023.87 1023.06 1022.45 1021.76 1021.83 1021.54 1020.89 1020.10 1019.26 1018.58 1017.92 1016.64 1015.62 1015.26
1029.85 1029.66 1029.42 1029.15 1028.88 1028.62 1028.18 1027.86 1027.42 1026.91 1026.41 1025.60 1025.04 1024.56 1023.78 1023.11 1022.05 1021.61 1021.41 1020.72 1019.98 1019.06 1018.45 1017.83 1017.00 1015.74 1015.31
Wind_Speed
0 1 4 2 4 4 5 4 5 16 15 17 15 17 18 17 17 16 17 17 19 20 21 22 23 23 21
1 2 1 2 1 3 4 4 6 12 17 14 14 18 16 18 17 18 18 18 18 20 21 21 22 22 23
2 2 2 2 2 3 5 4 6 15 12 11 18 17 18 17 17 18 18 21 18 19 20 21 21 23 23
1 2 2 3 3 4 7 3 7 7 6 14 15 16 17 19 19 19 21 20 18 20 20 20 21 23 23
1 2 3 3 3 3 4 8 7 1 6 7 7 5 6 12 13 18 19 19 21 21 21 22 23 22 23
1 2 3 3 2 3 3 5 5 2 8 9 4 5 6 6 18 18 15 22 22 22 21 23 23 23 25
1 0 1 1 2 3 2 6 6 8 6 7 4 5 6 10 17 15 20 22 23 22 24 24 21 22 25
1 3 3 4 4 3 4 6 6 5 3 4 3 6 8 8 15 14 23 23 21 24 23 23 22 25 27
7 7 9 8 9 3 4 5 7 9 0 4 5 9 8 4 3 22 18 21 24 24 23 22 26 27 14
4 6 7 6 9 3 3 5 7 4 3 8 6 7 5 2 10 4 7 18 24 22 20 25 26 10 9
4 3 3 4 2 4 4 4 4 5 9 6 5 6 3 11 5 8 6 11 9 9 16 23 23 19 9
2 1 3 4 5 5 4 6 5 8 9 7 3 7 7 9 8 8 9 10 5 5 10 15 20 21 20
4 4 4 3 5 4 5 6 6 6 6 5 5 8 4 7 8 9 12 7 5 9 9 9 9 9 10
3 4 4 3 4 5 5 5 6 3 6 6 7 6 7 7 6 10 7 6 9 8 9 9 9 7 7
2 4 5 5 5 5 4 5 2 5 7 7 6 6 6 8 6 6 6 7 8 9 9 9 9 7 8
3 3 4 4 5 5 3 4 5 6 6 6 8 10 6 4 2 3 3 7 8 8 8 7 8 9 8
2 3 3 4 7 5 5 5 6 3 4 6 7 6 8 8 5 4 8 8 8 9 7 6 7 10 7
Wind_Direction
113 306 2 354 352 359 352 351 356 336 327 328 333 332 324 325 322 321 328 330 328 328 326 321 319 315 314
302 320 313 306 15 28 355 359 337 326 327 319 338 330 329 327 321 333 329 328 326 327 321 321 320 320 322
288 277 268 34 358 360 353 329 327 323 324 336 334 331 333 331 329 331 332 321 318 316 318 326 321 318 323
342 303 345 4 34 352 338 334 317 324 336 333 327 327 332 339 338 333 324 311 316 318 324 318 319 319 321
351 6 6 4 17 337 319 320 313 304 331 315 315 315 313 329 321 320 314 339 328 325 322 327 327 329 327
20 23 355 347 340 341 325 348 336 314 331 313 308 297 316 314 320 318 332 338 328 329 330 331 329 332 331
87 2 315 276 282 329 263 327 308 296 296 299 319 311 308 308 315 322 341 335 334 328 332 326 329 332 331
134 278 250 255 234 285 292 299 297 291 274 274 291 294 307 299 304 333 333 337 333 334 330 328 335 333 326
13 357 9 6 39 18 347 337 325 320 330 323 304 304 298 267 303 329 329 332 331 333 334 337 335 328 320
16 25 42 22 28 45 330 330 325 319 290 325 315 342 309 273 320 304 309 323 332 334 338 338 330 327 319
35 28 20 3 347 343 331 330 318 288 300 322 325 317 279 312 311 317 329 318 320 319 327 330 332 332 325
47 338 358 3 335 322 328 312 281 283 301 303 269 302 307 312 312 324 324 316 319 312 327 321 323 328 329
18 10 349 320 307 310 287 283 272 280 293 292 292 296 272 289 298 316 323 320 325 331 325 322 315 318 317
4 332 313 324 328 319 318 312 316 303 306 298 296 295 304 294 299 307 309 317 325 322 320 315 318 312 307
344 325 330 332 326 322 307 321 299 308 323 325 316 295 280 267 298 299 307 320 318 314 322 323 319 323 328
326 310 313 320 316 321 306 296 303 315 318 318 330 335 330 299 280 293 301 316 317 317 314 315 316 326 331
297 298 308 310 327 305 308 309 309 295 291 316 323 326 326 329 291 307 327 318 314 316 314 300 295 311 314